User: anonymous   Login
Location: Eastlake (historical)
(39.0077°N, 122.6678°W)
Time: 08:54:03
(UTC+00:00)
Language:

Cosmos 489 Rocket - Orbit

View from above orbital plane
View from above orbital plane
View from above satellite
View from above satellite

Ground track
Ground track

The orbit data is extracted from the following two-line orbital elements,

1 06020U 72035B   21065.53147689  .00000000  00000-0  21884-4 0  9999
2 06020  74.0227 164.7079 0021052 193.6259 256.7523 13.78841481456157
Epoch (UTC): 06 March 2021 12:45:19
Eccentricity: 0.0021052
inclination: 74.0227°
perigee height: 952 km
apogee height: 983 km
right ascension of ascending node: 164.7079°
argument of perigee: 193.6259°
revolutions per day: 13.78841481
mean anomaly at epoch: 256.7523°
orbit number at epoch: 45615

The dashed part of the orbit path shows where the satellite is in the earth's shadow,  

DLR